{"data":{"norad_id":59739,"intl_designator":"2024-090K","name":"STARLINK-31726","alt_names":[],"object_type":"PAYLOAD","status":"ACTIVE","operator":null,"country":"US","launch_date":"2024-05-13","launch_site_code":"AFETR","launch_vehicle":null,"mission":null,"orbit_class":"UNKNOWN","rcs_meters":null,"size_class":null,"mass_kg":null,"dimensions":null,"purposes":["comms"],"wikipedia_slug":null,"has_3d_model":false,"image_url":null,"decayed_at":null,"tle_current":{"epoch":"2026-09-21T03:06:13.749984Z","epoch_age_seconds":117002,"freshness":"FRESH","line1":"1 59739U 24090K   26264.12932581  .00000588  00000+0  30883-4 0  9995","line2":"2 59739  43.0011 159.4480 0001023 263.4959  96.5776 15.27578618133332","mean_motion":15.27578618,"eccentricity":0.0001023,"inclination_deg":43.0011,"raan_deg":159.448,"arg_perigee_deg":263.4959,"mean_anomaly_deg":96.5776,"bstar":3.0883e-5,"rev_number":13333,"period_min":94.266833996756,"perigee_km":482.35133448698,"apogee_km":483.75513400891,"semimajor_km":6861.1902342479,"source":"CELESTRAK","updated_at":"2026-09-22T09:00:49.063386Z"}}}